Rechercher aéroport 
image banner adimage banner adimage banner ad
image banner ad

CN33 - Airport Imperial Bldg Helistop

Situé à El Segundo, United States

ICAO - CN33, IATA -

Données fournies par Airmate  

Information générale

Coordonnées: N33°55'49" W118°23'49"
Élévation : 238 feet MSL.
Variation magnétique : 14° East
Voir autres Aéroports à California

Données opérationnelles

Special qualification required
Heure actuelle UTC:
Heure actuelle locale:
Météo à : KLAX - Los Angeles Intl ( 2 km )
METAR: KLAX 020553Z 18003KT 10SM CLR 18/15 A3002 RMK AO2 SLP163 T01830150 10222 20183 51013
TAF: KLAX 020533Z 0206/0312 24005KT P6SM SKC FM021000 VRB03KT P6SM SKC FM021700 25006KT P6SM SKC FM022000 26012KT P6SM SKC FM030400 25006KT P6SM SKC FM031000 VRB03KT P6SM SKC
Voir NOTAMs / SUP AIP / TFR affectant cet aéroport [VIEW]
Fréquences de communication: [VIEW]

Pistes:

Coordonnées de l'aéroport

Adresse: El Segundo United States

Vue satellite de CN33